Location: �mondeville
(49.4591°N, 1.3431°W)
Time: 05:36:39
(UTC+00:00)

ALOS - Pass Details

Date: 22 October 2019
Orbit: 683 x 686 km, 97.8° (Epoch: 21 November)

Event Time Altitude Azimuth Distance (km) Brightness Sun altitude
Rises 05:03:58 0° 20° (NNE) 3,061 5.9 -15.8°
Reaches altitude 10° 05:06:23 10° 28° (NNE) 2,140 5.2 -15.4°
Maximum altitude 05:10:44 38° 97° (E) 1,051 3.9 -14.7°
Drops below altitude 10° 05:15:03 10° 165° (SSE) 2,123 5.0 -14.0°
Sets 05:17:25 0° 173° (S) 3,034 5.7 -13.6°
